Regional Weather Roundup
Issued by NWS Jackson, KY

Home | Current Version | Previous Version | Text Only | Print | Product List | Glossary On
Versions: 1 2 3 4 5 6 7 8 9 10 11 12 13 14 15 16 17 18 19 20 21 22 23 24 25 26 27 28 29 30 31 32 33 34 35 36 37 38 39 40 41 42 43 44 45 46 47 48 49 50
000
ASUS43 KJKL 180111
RWRJKL

EAST KENTUCKY HOURLY WEATHER ROUNDUP
NATIONAL WEATHER SERVICE JACKSON KY
900 PM EDT THU APR 17 2014

NOTE: "FAIR" INDICATES FEW OR NO CLOUDS BELOW 12,000 FEET WITH
NO SIGNIFICANT WEATHER AND/OR OBSTRUCTIONS TO VISIBILITY.

* THESE REPORTS ARE NOT UNDER NWS QUALITY CONTROL AND MAY NOT
  REPORT WEATHER SUCH AS PRECIPITATION AND FOG.

KYZ079-080-083-085-087-088-110-112-115-119-120-180200
...EASTERN KENTUCKY...

CITY           SKY/WX    TMP DP  RH WIND       PRES   REMARKS
JACKSON        CLEAR     62  20  19 VRB3      30.28S
LONDON         CLEAR     60  26  27 CALM      30.28R
SOMERSET*      CLEAR     59  30  33 CALM      30.28S
MONTICELLO*    CLEAR     57  47  69 CALM      30.29S
MIDDLESBORO*   CLEAR     55  34  43 CALM      30.30R
HARLAN APT*    CLEAR     61  14  16 CALM      30.29S
PIKEVILLE APT* CLEAR     63  23  22 E3        30.30R
BIG SANDY*     CLEAR     60  24  24 NE3       30.29S
MOREHEAD APT*  CLEAR     63  25  23 NW2       30.31S
$$

KYZ035-036-041-042-044-050-067-078-099-180200
...CENTRAL KENTUCKY...

CITY           SKY/WX    TMP DP  RH WIND       PRES   REMARKS
MT STERLING*   CLEAR     57  36  44 CALM      30.30S
FLEMING/MASON* CLEAR     59  32  36 CALM      30.29F
DANVILLE*      CLEAR     52  37  58 CALM      30.28S
LEXINGTON      CLEAR     62  32  32 CALM      30.28S
FRANKFORT      PTCLDY    57  36  45 CALM      30.27R
$$

KYZ091>093-OHZ055-061-077-WVZ005-015-034-035-042-180200
...SOUTHERN OHIO/WEST VIRGINIA...

CITY           SKY/WX    TMP DP  RH WIND       PRES   REMARKS
COVINGTON      PTCLDY    61  33  35 CALM      30.28R
COLUMBUS       PTCLDY    63  29  27 S3        30.28R
DAYTON         PTCLDY    61  32  33 SW5       30.29R
WILMINGTON     CLEAR     54  34  46 SW6       30.30R
HUNTINGTON     CLEAR     62  20  19 CALM      30.30R
CHARLESTON     PTCLDY    63  24  22 S13       30.32R
PINEVILLE*     CLEAR     56  33  40 MISG      30.41R
BECKLEY        CLEAR     50  24  36 SE9       30.40R
BLUEFIELD      CLEAR     52  20  28 SE6       30.40R
$$

VAZ002-007-008-TNZ017-027-036-066-071-180200
...SOUTHWEST VIRGINIA/EAST TENNESSEE...

CITY           SKY/WX    TMP DP  RH WIND       PRES   REMARKS
WISE*          CLEAR     55  21  26 S3        30.35R
ABINGDON*      CLEAR     55  23  28 SE8       30.35R
BRISTOL        PTCLDY    58  18  21 E9        30.34R
KNOXVILLE      MOCLDY    63  32  31 W3        30.29R
OAK RIDGE      PTCLDY    59  35  40 CALM      30.31R
CROSSVILLE     PTCLDY    55  33  43 CALM      30.31R
NASHVILLE      MOCLDY    62  37  39 CALM      30.26S
$$

...KEY TO REMARKS...
VSB - VISIBILITY IN MILES
WCI - WIND CHILL INDEX
HX  - HEAT INDEX

$$



USA.gov is the U.S. government's official web portal to all federal, state and local government web resources and services.